NOAA 12

Satellite information

Favourite Embed

Satellite Type and Status

PAYLOADIN ORBIT

Key statistics

Satellite NOAA 12 at a glance.

Uptime

12471

Days in orbit

Revolutions

≈ 14.3

Per day

Orbit

SSO

Sun Synchronous Orbit

Inclination

98.6

Latest

Satellite identification and parameters

Extended collection of information and parameters for NOAA 12.

Object identification

Identified? True

Debris? False

Object name: NOAA 12

International designator: 1991-032A

Object number (NORAD): 21263

Object ID (CCSDS): 21263

Country: UNITED STATES OF AMERICA (US)

Current information (Y/N): Y

RCS size: LARGE

Orbital parameters

Period: 100.938 minutes

Inclination: 98.588 deg

SMA: 7181.201 km

Apoapsis: 812.403 km

Periapsis: 793.73 km

RAAN: 174.8221 deg

Eccentricy: 0.0013001

Argument of periapsis: 328.6897 deg

Mean anomaly: 31.3508 deg

Mean motion: 14.26616079 rev/day

Mean motion (dot): 0.00000077 rev/day2

B* drag term: 0.000049655 1/REarth

Two-line elements (TLE)

Creation date: July 4, 2025, 6:39 p.m.

Reference frame: TEME

Reference center: EARTH

Epoch: July 4, 2025, 1:13 p.m. UTC

TLE line 0: 0 NOAA 12

TLE line 1: 1 21263U 91032A 25185.55113633 .00000077 00000-0 49655-4 0 9994

TLE line 2: 2 21263 98.5880 174.8221 0013001 328.6897 31.3508 14.26616079775390

Live tracking on map

Real-time ground track for satellite NOAA 12.

In-orbit conjunctions

A list of the most updated potential collisions computed for object NOAA 12.

Target Orbit TCA Probability of collision Miss distance Type
NOAA 16 DEB SSO 2025-03-09 10:32:39 0.0002997465 55.0 (m) DEBRIS
IRIDIUM 33 DEB LEO 2025-01-24 06:15:10 0.0001314395 1000.0 (m) DEBRIS
FENGYUN 1C DEB SSO 2024-12-27 01:17:37 0.000101052 239.0 (m) DEBRIS
COSMOS 2251 DEB LEO 2024-09-04 20:17:33 0.0002341862 517.0 (m) DEBRIS

Associated space launch

Fourth generation NOAA meteorological satellite

NOAA 12 was lifted into orbit during the mission ‘Atlas E | NOAA 12’, on board a Atlas E space rocket.

The launch took place on May 14, 1991, 3:52 p.m. from Space Launch Complex 3W.

For more information about the launch, click the button.

Launch to space Atlas E | NOAA 12
Atlas E | NOAA 12

Agency: N/A

Status: Launch Successful

Launch date: May 14, 1991, 3:52 p.m. UTC

Rocket: Atlas E

Launch pad: Space Launch Complex 3W

Location: Vandenberg SFB, CA, USA

...

Latest news about this satellite

There are no fresh news available about this satellite. Check back as we update our databases every day.


Newsletter sign-up

Weekly statistics, charts and insights to help you stay on top of the space industry.